{"data":{"norad_id":63429,"epoch":"2026-09-22T18:31:48.891360Z","epoch_age_seconds":109918,"freshness":"FRESH","line1":"1 63429U 25067B   26265.77209365  .00009274  00000+0  44895-3 0  9998","line2":"2 63429  55.0005 321.1885 0004472 185.0013 175.0963 15.19272139 82779","mean_motion":15.19272139,"eccentricity":0.0004472,"inclination_deg":55.0005,"raan_deg":321.1885,"arg_perigee_deg":185.0013,"mean_anomaly_deg":175.0963,"bstar":0.00044895,"rev_number":8277,"period_min":94.782229136896,"perigee_km":504.95961540508,"apogee_km":511.11861132087,"semimajor_km":6886.176113363,"source":"CELESTRAK","updated_at":"2026-09-23T09:00:22.082203Z"}}